Simultaneous Nadir Overpasses (SNOs) Predictions

Prediction of SNOs between AQUA and METOP-B Satellite Orbit:

Table of predicted SNOs for the next 14.0 days since TLE Epoch: 12/8/2024
Index Date (AQUA) Time (AQUA) Lat,Lon (AQUA) SZA (AQUA ) Date (METOP-B) Time (METOP-B) Lat,Lon (METOP-B) SZA (METOP-B ) Distance(km) Time Diff (sec)
1 12/08/2024 07:07:11 -76.60,-108.49 80.71 12/08/2024 07:06:17 -76.61,-108.46 80.70 1.89 54
2 12/08/2024 07:56:31 76.63, 59.06 99.33 12/08/2024 07:56:55 76.64, 59.00 99.35 2.49 24
3 12/10/2024 20:46:46 76.59,-133.30 99.52 12/10/2024 20:45:35 76.59,-133.40 99.52 2.57 71
4 12/10/2024 21:36:06 -76.63, 34.22 80.44 12/10/2024 21:36:15 -76.65, 34.16 80.42 2.78 9
5 12/13/2024 10:26:11 -76.21,-156.86 80.68 12/13/2024 10:25:05 -76.13,-159.90 80.76 81.46 66
6 12/13/2024 11:15:40 76.63, 9.38 99.75 12/13/2024 11:15:33 76.66, 9.33 99.78 3.19 7
7 12/13/2024 12:05:01 -76.72, 176.73 80.16 12/13/2024 12:06:13 -76.72, 176.90 80.16 4.22 72
8 12/16/2024 00:55:11 -76.64, -15.49 80.11 12/16/2024 00:54:53 -76.64, -15.61 80.12 3.21 18
9 12/16/2024 01:44:32 76.68, 152.04 99.94 12/16/2024 01:45:31 76.71, 152.01 99.96 2.99 59
10 12/18/2024 14:34:41 76.66, -40.36 100.00 12/18/2024 14:34:10 76.65, -40.39 99.99 0.96 31
11 12/18/2024 15:24:01 -76.70, 127.16 79.97 12/18/2024 15:24:50 -76.72, 127.19 79.95 2.01 49
12 12/21/2024 04:14:07 -76.69, -65.25 79.95 12/21/2024 04:13:28 -76.65, -65.25 79.99 3.74 39



Historial Predications of SNOs between AQUA and METOP-B
